TimeEST,TemperatureF,Dew PointF,Humidity,Sea Level PressureIn,VisibilityMPH,Wind Direction,Wind SpeedMPH,Gust SpeedMPH,PrecipitationIn,Events,Conditions,WindDirDegrees,DateUTC
12:55 AM,75.4,75.4,100,30.06,10.0,SE,4.6,-,N/A,,Clear,140,2012-12-12 05:55:00
1:55 AM,75.2,75.2,100,30.06,10.0,SSE,3.5,-,N/A,,Clear,150,2012-12-12 06:55:00
2:55 AM,75.9,75.6,99,30.05,10.0,SSE,8.1,-,N/A,,Clear,150,2012-12-12 07:55:00
3:55 AM,75.4,75.0,99,30.06,10.0,SE,4.6,-,N/A,,Clear,140,2012-12-12 08:55:00
4:55 AM,75.2,73.9,96,30.05,10.0,SE,6.9,-,N/A,,Clear,130,2012-12-12 09:55:00
5:55 AM,75.9,73.2,91,30.06,10.0,SE,6.9,-,N/A,,Clear,130,2012-12-12 10:55:00
6:55 AM,76.3,73.2,90,30.07,10.0,SE,8.1,-,N/A,,Clear,140,2012-12-12 11:55:00
7:55 AM,76.5,72.3,87,30.09,10.0,SE,8.1,-,N/A,,Clear,140,2012-12-12 12:55:00
8:55 AM,77.5,72.1,83,30.12,10.0,SSE,8.1,-,N/A,,Clear,160,2012-12-12 13:55:00
9:55 AM,78.4,72.5,82,30.13,10.0,SSE,8.1,-,N/A,,Clear,160,2012-12-12 14:55:00
10:55 AM,81.0,72.9,76,30.10,10.0,SE,13.8,20.7,N/A,,Clear,140,2012-12-12 15:55:00
11:55 AM,81.5,72.3,74,30.09,10.0,SSE,11.5,-,N/A,,Clear,150,2012-12-12 16:55:00
12:55 PM,81.5,71.8,72,30.07,10.0,South,13.8,-,N/A,,Partly Cloudy,170,2012-12-12 17:55:00
1:55 PM,81.9,72.0,72,30.05,10.0,South,11.5,-,N/A,,Clear,170,2012-12-12 18:55:00
2:55 PM,80.6,71.2,73,30.04,10.0,SSE,12.7,-,N/A,,Clear,150,2012-12-12 19:55:00
3:55 PM,80.1,71.8,76,30.05,10.0,South,9.2,-,N/A,,Partly Cloudy,170,2012-12-12 20:55:00
4:55 PM,78.1,72.0,81,30.06,10.0,South,6.9,-,N/A,,Partly Cloudy,190,2012-12-12 21:55:00
5:55 PM,76.3,72.0,86,30.08,10.0,WSW,4.6,-,N/A,,Partly Cloudy,240,2012-12-12 22:55:00
6:55 PM,74.8,74.5,99,30.10,10.0,Calm,Calm,-,N/A,,Clear,0,2012-12-12 23:55:00
7:55 PM,72.5,72.1,99,30.10,10.0,SE,5.8,-,N/A,,Clear,140,2012-12-13 00:55:00
8:55 PM,72.3,72.3,100,30.09,10.0,SSE,4.6,-,N/A,,Clear,150,2012-12-13 01:55:00
9:55 PM,72.0,72.0,100,30.09,10.0,Calm,Calm,-,N/A,,Clear,0,2012-12-13 02:55:00
10:55 PM,70.7,70.7,100,30.10,10.0,Calm,Calm,-,N/A,,Clear,0,2012-12-13 03:55:00
11:55 PM,70.9,70.9,100,30.08,10.0,Calm,Calm,-,N/A,,Clear,0,2012-12-13 04:55:00